{"data":{"norad_id":64767,"epoch":"2026-09-20T03:44:08.851200Z","epoch_age_seconds":157672,"freshness":"FRESH","line1":"1 64767U 25147N   26263.15565800  .00009800  00000+0  30079-3 0  9996","line2":"2 64767  53.1619  55.3413 0000784  86.8864 273.2228 15.34400846 68530","mean_motion":15.34400846,"eccentricity":7.84e-5,"inclination_deg":53.1619,"raan_deg":55.3413,"arg_perigee_deg":86.8864,"mean_anomaly_deg":273.2228,"bstar":0.00030079,"rev_number":6853,"period_min":93.847706337878,"perigee_km":462.16440404028,"apogee_km":463.23704739567,"semimajor_km":6840.837725718,"source":"CELESTRAK","updated_at":"2026-09-21T09:00:35.438594Z"}}